Time,TemperatureF,DewpointF,PressureIn,WindDirection,WindDirectionDegrees,WindSpeedMPH,WindSpeedGustMPH,Humidity,HourlyPrecipIn,Conditions,Clouds,dailyrainin,SoftwareType,DateUTC
2013-01-25 00:05:00,26.2,11.0,29.64,NE,44,2.0,7.0,53,0.00,,,0.00,weatherlink.com 1.10,2013-01-25 06:05:00,
2013-01-25 00:20:00,26.4,11.0,29.64,East,80,2.0,9.0,52,0.00,,,0.00,weatherlink.com 1.10,2013-01-25 06:20:00,
2013-01-25 00:35:00,26.4,11.0,29.65,ENE,78,6.0,7.0,52,0.00,,,0.00,weatherlink.com 1.10,2013-01-25 06:35:00,
2013-01-25 00:50:00,26.6,11.0,29.64,East,83,5.0,6.0,52,0.00,,,0.00,weatherlink.com 1.10,2013-01-25 06:50:00,
2013-01-25 01:05:00,26.6,11.0,29.63,East,82,4.0,8.0,51,0.00,,,0.00,weatherlink.com 1.10,2013-01-25 07:05:00,
2013-01-25 01:21:00,26.6,11.0,29.60,ESE,121,4.0,7.0,51,0.00,,,0.00,weatherlink.com 1.10,2013-01-25 07:21:00,
2013-01-25 01:36:00,26.6,10.0,29.58,ESE,119,7.0,12.0,50,0.00,,,0.00,weatherlink.com 1.10,2013-01-25 07:36:00,
2013-01-25 01:51:00,26.8,10.0,29.57,ESE,112,6.0,13.0,49,0.00,,,0.00,weatherlink.com 1.10,2013-01-25 07:51:00,
2013-01-25 02:06:00,26.9,10.0,29.58,SSW,192,2.0,10.0,49,0.00,,,0.00,weatherlink.com 1.10,2013-01-25 08:06:00,
2013-01-25 02:21:00,26.9,9.0,29.58,East,84,5.0,8.0,48,0.00,,,0.00,weatherlink.com 1.10,2013-01-25 08:21:00,
2013-01-25 02:36:00,26.9,9.0,29.57,South,188,5.0,9.0,48,0.00,,,0.00,weatherlink.com 1.10,2013-01-25 08:36:00,
2013-01-25 02:51:00,27.0,10.0,29.57,SE,127,6.0,8.0,48,0.00,,,0.00,weatherlink.com 1.10,2013-01-25 08:51:00,
2013-01-25 03:06:00,27.0,10.0,29.57,SSE,155,1.0,6.0,49,0.00,,,0.00,weatherlink.com 1.10,2013-01-25 09:06:00,
2013-01-25 03:21:00,27.0,10.0,29.56,ESE,114,1.0,3.0,48,0.00,,,0.00,weatherlink.com 1.10,2013-01-25 09:21:00,
2013-01-25 03:36:00,27.0,10.0,29.57,SE,146,1.0,4.0,49,0.00,,,0.00,weatherlink.com 1.10,2013-01-25 09:36:00,
2013-01-25 03:51:00,27.0,10.0,29.57,SW,225,1.0,4.0,48,0.00,,,0.00,weatherlink.com 1.10,2013-01-25 09:51:00,
2013-01-25 04:06:00,27.0,10.0,29.57,ESE,117,1.0,2.0,49,0.00,,,0.00,weatherlink.com 1.10,2013-01-25 10:06:00,
2013-01-25 04:21:00,27.1,10.0,29.55,ESE,113,4.0,4.0,49,0.00,,,0.00,weatherlink.com 1.10,2013-01-25 10:21:00,
2013-01-25 04:36:00,27.0,10.0,29.54,SE,141,1.0,5.0,49,0.00,,,0.00,weatherlink.com 1.10,2013-01-25 10:36:00,
2013-01-25 04:51:00,27.1,10.0,29.54,East,92,0.0,4.0,49,0.00,,,0.00,weatherlink.com 1.10,2013-01-25 10:51:00,
2013-01-25 05:06:00,27.2,11.0,29.55,West,266,0.0,2.0,50,0.00,,,0.00,weatherlink.com 1.10,2013-01-25 11:06:00,
2013-01-25 05:21:00,27.3,11.0,29.55,SSW,212,0.0,3.0,51,0.00,,,0.00,weatherlink.com 1.10,2013-01-25 11:21:00,
2013-01-25 05:36:00,27.1,11.0,29.53,SE,127,0.0,5.0,52,0.00,,,0.00,weatherlink.com 1.10,2013-01-25 11:36:00,
2013-01-25 05:51:00,27.2,12.0,29.52,SW,217,1.0,2.0,53,0.00,,,0.00,weatherlink.com 1.10,2013-01-25 11:51:00,
2013-01-25 06:06:00,27.1,13.0,29.53,SSE,167,1.0,4.0,56,0.00,,,0.00,weatherlink.com 1.10,2013-01-25 12:06:00,
2013-01-25 06:21:00,27.2,14.0,29.52,SSE,155,2.0,4.0,59,0.00,,,0.00,weatherlink.com 1.10,2013-01-25 12:21:00,
2013-01-25 06:36:00,27.2,15.0,29.53,SSE,162,1.0,3.0,61,0.00,,,0.00,weatherlink.com 1.10,2013-01-25 12:36:00,
2013-01-25 06:51:00,27.0,15.0,29.53,SW,226,0.0,1.0,61,0.00,,,0.00,weatherlink.com 1.10,2013-01-25 12:51:00,
2013-01-25 07:06:00,27.2,16.0,29.54,West,264,1.0,2.0,62,0.00,,,0.00,weatherlink.com 1.10,2013-01-25 13:06:00,
2013-01-25 07:21:00,27.8,16.0,29.54,West,262,1.0,3.0,61,0.00,,,0.00,weatherlink.com 1.10,2013-01-25 13:21:00,
2013-01-25 07:36:00,27.9,16.0,29.54,SW,235,2.0,4.0,60,0.00,,,0.00,weatherlink.com 1.10,2013-01-25 13:36:00,
2013-01-25 07:51:00,28.1,15.0,29.55,WSW,248,1.0,5.0,59,0.00,,,0.00,weatherlink.com 1.10,2013-01-25 13:51:00,
2013-01-25 08:06:00,28.3,15.0,29.55,West,260,1.0,5.0,59,0.00,,,0.00,weatherlink.com 1.10,2013-01-25 14:06:00,
2013-01-25 08:21:00,28.5,16.0,29.55,SW,232,1.0,4.0,59,0.00,,,0.00,weatherlink.com 1.10,2013-01-25 14:21:00,
2013-01-25 08:36:00,28.7,16.0,29.55,WSW,248,2.0,4.0,59,0.00,,,0.00,weatherlink.com 1.10,2013-01-25 14:36:00,
2013-01-25 08:51:00,29.1,16.0,29.55,WSW,250,4.0,5.0,59,0.00,,,0.00,weatherlink.com 1.10,2013-01-25 14:51:00,
2013-01-25 09:06:00,29.8,17.0,29.56,SW,232,5.0,7.0,59,0.00,,,0.00,weatherlink.com 1.10,2013-01-25 15:06:00,
2013-01-25 09:22:00,30.1,17.0,29.56,WSW,250,5.0,11.0,59,0.00,,,0.00,weatherlink.com 1.10,2013-01-25 15:22:00,
2013-01-25 09:37:00,30.8,18.0,29.56,WNW,287,6.0,8.0,59,0.00,,,0.00,weatherlink.com 1.10,2013-01-25 15:37:00,
2013-01-25 09:52:00,31.4,18.0,29.57,West,274,6.0,9.0,59,0.00,,,0.00,weatherlink.com 1.10,2013-01-25 15:52:00,
2013-01-25 10:09:00,31.5,18.0,29.57,WSW,255,10.0,12.0,58,0.00,,,0.00,weatherlink.com 1.10,2013-01-25 16:09:00,
2013-01-25 10:22:00,31.9,18.0,29.56,WSW,240,4.0,9.0,58,0.00,,,0.00,weatherlink.com 1.10,2013-01-25 16:22:00,
2013-01-25 10:37:00,32.7,18.0,29.55,West,266,4.0,9.0,56,0.00,,,0.00,weatherlink.com 1.10,2013-01-25 16:37:00,
2013-01-25 10:52:00,34.7,19.0,29.55,West,276,8.0,14.0,54,0.00,,,0.00,weatherlink.com 1.10,2013-01-25 16:52:00,
2013-01-25 11:07:00,34.9,19.0,29.55,West,266,4.0,11.0,53,0.00,,,0.00,weatherlink.com 1.10,2013-01-25 17:07:00,
2013-01-25 11:37:00,37.3,19.0,29.54,WNW,293,2.0,10.0,48,0.00,,,0.00,weatherlink.com 1.10,2013-01-25 17:37:00,
2013-01-25 11:52:00,36.7,20.0,29.53,NNW,336,4.0,12.0,50,0.00,,,0.00,weatherlink.com 1.10,2013-01-25 17:52:00,
2013-01-25 12:07:00,37.5,20.0,29.53,WNW,287,6.0,11.0,50,0.00,,,0.00,weatherlink.com 1.10,2013-01-25 18:07:00,
2013-01-25 12:22:00,37.7,20.0,29.52,WSW,248,8.0,12.0,49,0.00,,,0.00,weatherlink.com 1.10,2013-01-25 18:22:00,
2013-01-25 12:37:00,38.2,20.0,29.52,West,260,9.0,14.0,49,0.00,,,0.00,weatherlink.com 1.10,2013-01-25 18:37:00,
2013-01-25 12:52:00,38.8,20.0,29.51,SSW,204,7.0,11.0,48,0.00,,,0.00,weatherlink.com 1.10,2013-01-25 18:52:00,
2013-01-25 13:07:00,39.7,21.0,29.51,West,259,9.0,15.0,47,0.00,,,0.00,weatherlink.com 1.10,2013-01-25 19:07:00,
2013-01-25 13:22:00,40.3,21.0,29.51,WNW,292,9.0,12.0,46,0.00,,,0.00,weatherlink.com 1.10,2013-01-25 19:22:00,
2013-01-25 13:37:00,40.4,21.0,29.51,WNW,285,6.0,12.0,47,0.00,,,0.00,weatherlink.com 1.10,2013-01-25 19:37:00,
2013-01-25 13:52:00,40.7,21.0,29.50,West,270,5.0,12.0,46,0.00,,,0.00,weatherlink.com 1.10,2013-01-25 19:52:00,
2013-01-25 14:07:00,42.2,22.0,29.50,WNW,287,9.0,11.0,44,0.00,,,0.00,weatherlink.com 1.10,2013-01-25 20:07:00,
2013-01-25 14:22:00,42.2,21.0,29.50,West,266,8.0,11.0,43,0.00,,,0.00,weatherlink.com 1.10,2013-01-25 20:22:00,
2013-01-25 14:37:00,42.3,21.0,29.50,West,274,7.0,10.0,43,0.00,,,0.00,weatherlink.com 1.10,2013-01-25 20:37:00,
2013-01-25 14:52:00,42.7,21.0,29.50,WSW,248,7.0,10.0,43,0.00,,,0.00,weatherlink.com 1.10,2013-01-25 20:52:00,
2013-01-25 15:07:00,43.0,22.0,29.50,WSW,242,5.0,11.0,43,0.00,,,0.00,weatherlink.com 1.10,2013-01-25 21:07:00,
2013-01-25 15:22:00,43.8,21.0,29.50,WSW,238,11.0,13.0,41,0.00,,,0.00,weatherlink.com 1.10,2013-01-25 21:22:00,
2013-01-25 15:37:00,43.9,21.0,29.50,SW,217,8.0,14.0,41,0.00,,,0.00,weatherlink.com 1.10,2013-01-25 21:37:00,
2013-01-25 15:52:00,43.6,21.0,29.49,West,276,10.0,11.0,41,0.00,,,0.00,weatherlink.com 1.10,2013-01-25 21:52:00,
2013-01-25 16:07:00,43.7,21.0,29.50,West,262,13.0,13.0,41,0.00,,,0.00,weatherlink.com 1.10,2013-01-25 22:07:00,
2013-01-25 16:22:00,42.9,21.0,29.50,West,266,9.0,14.0,42,0.00,,,0.00,weatherlink.com 1.10,2013-01-25 22:22:00,
2013-01-25 16:38:00,42.4,21.0,29.50,WSW,240,10.0,13.0,42,0.00,,,0.00,weatherlink.com 1.10,2013-01-25 22:38:00,
2013-01-25 16:53:00,42.6,21.0,29.51,WSW,240,10.0,11.0,42,0.00,,,0.00,weatherlink.com 1.10,2013-01-25 22:53:00,
2013-01-25 17:08:00,42.0,21.0,29.51,WSW,246,3.0,8.0,43,0.00,,,0.00,weatherlink.com 1.10,2013-01-25 23:08:00,
2013-01-25 17:23:00,41.2,21.0,29.52,West,259,6.0,9.0,44,0.00,,,0.00,weatherlink.com 1.10,2013-01-25 23:23:00,
2013-01-25 17:38:00,40.7,20.0,29.52,West,277,5.0,8.0,44,0.00,,,0.00,weatherlink.com 1.10,2013-01-25 23:38:00,
2013-01-25 17:53:00,40.4,20.0,29.53,West,269,5.0,8.0,45,0.00,,,0.00,weatherlink.com 1.10,2013-01-25 23:53:00,
2013-01-25 18:08:00,40.1,20.0,29.53,West,270,4.0,9.0,45,0.00,,,0.00,weatherlink.com 1.10,2013-01-26 00:08:00,
2013-01-25 18:23:00,39.7,20.0,29.53,West,266,5.0,7.0,46,0.00,,,0.00,weatherlink.com 1.10,2013-01-26 00:23:00,
2013-01-25 18:38:00,39.5,20.0,29.54,West,270,5.0,8.0,46,0.00,,,0.00,weatherlink.com 1.10,2013-01-26 00:38:00,
2013-01-25 18:53:00,39.3,20.0,29.54,WSW,241,8.0,8.0,46,0.00,,,0.00,weatherlink.com 1.10,2013-01-26 00:53:00,
2013-01-25 19:08:00,39.0,20.0,29.54,West,281,5.0,8.0,46,0.00,,,0.00,weatherlink.com 1.10,2013-01-26 01:08:00,
2013-01-25 19:23:00,38.8,19.0,29.53,WSW,245,5.0,9.0,46,0.00,,,0.00,weatherlink.com 1.10,2013-01-26 01:23:00,
2013-01-25 19:38:00,38.5,20.0,29.54,WSW,252,7.0,8.0,47,0.00,,,0.00,weatherlink.com 1.10,2013-01-26 01:38:00,
2013-01-25 19:53:00,38.4,20.0,29.54,West,277,8.0,11.0,47,0.00,,,0.00,weatherlink.com 1.10,2013-01-26 01:53:00,
2013-01-25 20:08:00,38.3,20.0,29.54,WNW,285,6.0,10.0,47,0.00,,,0.00,weatherlink.com 1.10,2013-01-26 02:08:00,
2013-01-25 20:23:00,38.4,20.0,29.54,West,274,6.0,12.0,47,0.00,,,0.00,weatherlink.com 1.10,2013-01-26 02:23:00,
2013-01-25 20:38:00,38.0,20.0,29.54,West,260,8.0,11.0,48,0.00,,,0.00,weatherlink.com 1.10,2013-01-26 02:38:00,
2013-01-25 20:53:00,37.8,20.0,29.54,West,267,9.0,11.0,48,0.00,,,0.00,weatherlink.com 1.10,2013-01-26 02:53:00,
2013-01-25 21:08:00,37.8,20.0,29.54,WSW,245,9.0,13.0,49,0.00,,,0.00,weatherlink.com 1.10,2013-01-26 03:08:00,
2013-01-25 21:23:00,37.7,20.0,29.55,WSW,248,8.0,13.0,49,0.00,,,0.00,weatherlink.com 1.10,2013-01-26 03:23:00,
2013-01-25 21:38:00,37.6,20.0,29.56,West,266,6.0,13.0,50,0.00,,,0.00,weatherlink.com 1.10,2013-01-26 03:38:00,
2013-01-25 21:53:00,37.7,20.0,29.56,West,276,7.0,13.0,50,0.00,,,0.00,weatherlink.com 1.10,2013-01-26 03:53:00,
2013-01-25 22:08:00,37.9,21.0,29.57,WSW,255,11.0,14.0,50,0.00,,,0.00,weatherlink.com 1.10,2013-01-26 04:08:00,
2013-01-25 22:23:00,37.7,20.0,29.58,SW,219,7.0,11.0,50,0.00,,,0.00,weatherlink.com 1.10,2013-01-26 04:23:00,
2013-01-25 22:38:00,37.3,21.0,29.59,West,266,5.0,9.0,51,0.00,,,0.00,weatherlink.com 1.10,2013-01-26 04:38:00,
2013-01-25 22:53:00,37.4,21.0,29.59,West,276,5.0,11.0,51,0.00,,,0.00,weatherlink.com 1.10,2013-01-26 04:53:00,
2013-01-25 23:08:00,37.3,21.0,29.60,West,276,5.0,9.0,52,0.00,,,0.00,weatherlink.com 1.10,2013-01-26 05:08:00,
2013-01-25 23:23:00,36.8,21.0,29.60,WSW,257,4.0,6.0,53,0.00,,,0.00,weatherlink.com 1.10,2013-01-26 05:23:00,
2013-01-25 23:38:00,36.4,21.0,29.60,WSW,242,3.0,7.0,54,0.00,,,0.00,weatherlink.com 1.10,2013-01-26 05:38:00,
2013-01-25 23:53:00,36.0,21.0,29.60,WSW,240,3.0,4.0,55,0.00,,,0.00,weatherlink.com 1.10,2013-01-26 05:53:00,